Location: Nashville
(36.1660°N, 86.7840°W)
Time: 20:47:41
(UTC-05:00)

Tiros 1 - Pass Details

Date: 06 February 2022
Orbit: 629 x 663 km, 48.4° (Epoch: 27 May)

Event Time Altitude Azimuth Distance (km) Brightness Sun altitude
Rises 20:17:34 0° 295° (WNW) 2,988 11.5 -36.3°
Reaches altitude 10° 20:20:34 10° 313° (NW) 2,079 10.3 -36.9°
Enters shadow 20:21:12 12° 320° (NW) 1,925 10.0 -37.1°
